This is the latest recevied weather packets stored in our database for station/object W1RCY. If no packets are shown the sender has not sent any weather packets the latest 10 day(s).
| Time | Temp. | Humidity | Pressure | Rain* | Wind** | Luminosity | Snow |
|---|---|---|---|---|---|---|---|
| 1778098656 | 15.56° C | 99% | 1004.1 hPa | 4.32 mm | - | 64 W/m² | - |
| 1778098353 | 15.56° C | 99% | 1004.4 hPa | 1.27 mm | - | 32 W/m² | - |
| 1778098050 | 15.56° C | 99% | 1004.3 hPa | 1.78 mm | - | 22 W/m² | - |
| 1778097746 | 15.56° C | 99% | 1004.4 hPa | 1.78 mm | - | 28 W/m² | - |
| 1778097442 | 15.56° C | 99% | 1004.2 hPa | 0 mm | - | 25 W/m² | - |
| 1778097139 | 15.56° C | 99% | 1004.3 hPa | 0 mm | - | 31 W/m² | - |
| 1778096836 | 15.56° C | 99% | 1004.2 hPa | 0 mm | - | 45 W/m² | - |
| 1778096533 | 15.56° C | 99% | 1004.3 hPa | 0 mm | - | 60 W/m² | - |
| 1778096230 | 15.56° C | 99% | 1004.5 hPa | 1.78 mm | - | 78 W/m² | - |
| 1778095922 | 15.56° C | 99% | 1004.3 hPa | 1.78 mm | - | 83 W/m² | - |
| 1778095618 | 15.56° C | 99% | 1004.3 hPa | 0 mm | - | 71 W/m² | - |
| 1778095315 | 15.56° C | 99% | 1004.7 hPa | 0 mm | - | 65 W/m² | - |
| 1778095012 | 15.56° C | 98% | 1005 hPa | 0 mm | - | 51 W/m² | - |
| 1778094708 | 15.56° C | 98% | 1004.7 hPa | 1.27 mm | - | 71 W/m² | - |
| 1778094405 | 15.56° C | 98% | 1005.1 hPa | 3.05 mm | - | 61 W/m² | - |
| 1778094102 | 15.56° C | 99% | 1005.2 hPa | 1.78 mm | - | 65 W/m² | - |
| 1778093799 | 15.56° C | 98% | 1005.2 hPa | 1.27 mm | - | 60 W/m² | - |
| 1778093495 | 15.56° C | 98% | 1005.4 hPa | 3.05 mm | - | 70 W/m² | - |
| 1778093193 | 16.11° C | 97% | 1005.2 hPa | 1.27 mm | - | 59 W/m² | - |
| 1778092890 | 16.11° C | 96% | 1005.3 hPa | 3.05 mm | - | 57 W/m² | - |
| 1778092587 | 16.11° C | 96% | 1005.1 hPa | 3.05 mm | - | 70 W/m² | - |
| 1778092282 | 16.11° C | 95% | 1005.5 hPa | 3.05 mm | - | 75 W/m² | - |
| 1778091980 | 16.67° C | 95% | 1005.4 hPa | 1.78 mm | - | 52 W/m² | - |
| 1778091677 | 16.67° C | 95% | 1005.6 hPa | 1.27 mm | - | 78 W/m² | - |
| 1778091375 | 16.67° C | 93% | 1005.5 hPa | 3.05 mm | - | 68 W/m² | - |
* Rain latest hour (hover to see other rain measurements)
** Current wind speed in m/s (hover to see current wind gust speed)